Location: *
(49.6619°S, 177.4603°W)
Time: 06:11:30
(UTC+00:00)

Cosmos 1745 Rocket - Pass Details

Date: 31 January 2023
Orbit: 952 x 998 km, 83.0° (Epoch: 01 April)

Event Time Altitude Azimuth Distance (km) Brightness Sun altitude
Rises 07:59:00 0° 8° (N) 3,626 6.6 -4.1°
Reaches altitude 10° 08:01:31 10° 12° (NNE) 2,686 5.9 -4.4°
Maximum altitude 08:07:30 56° 88° (E) 1,139 4.1 -5.2°
Drops below altitude 10° 08:13:33 10° 164° (SSE) 2,724 6.6 -6.0°
Sets 08:16:07 0° 167° (SSE) 3,681 7.4 -6.3°
